Change the Weather History Date:

Saturday, May 11, 2013

  Actual Average Record
Temperature  
Mean Temperature 60 °F -  
Max Temperature 66 °F 65 °F 82 °F (2001)
Min Temperature 57 °F 48 °F 45 °F (2008)
Degree Days  
Heating Degree Days 4    
Growing Degree Days 10 (Base 50)    
Moisture  
Dew Point 58 °F    
Average Humidity 92    
Maximum Humidity 100    
Minimum Humidity 80    
Precipitation  
Precipitation 0.73 in - - ()
Sea Level Pressure  
Sea Level Pressure 29.79 in    
Wind  
Wind Speed 9 mph (SSW)    
Max Wind Speed 21 mph    
Max Gust Speed 29 mph    
Visibility 6 miles    
Events Rain , Thunderstorm    
Averages and records for this station are not official NWS values.
T = Trace of Precipitation, MM = Missing Value Source: NWS Daily Summary

Daily Weather History Graph

Daily Weather History Graph

Search for Another Location

Airport or City:

Trip Planner

Search our weather history database for the weather conditions in past years. The results will help you decide how hot, cold, wet, or windy it might be!

Date:

Astronomy

May. 11, 2013 Rise Set
Actual Time 5:40 AM EDT 8:00 PM EDT
Civil Twilight 5:09 AM EDT 8:31 PM EDT
Nautical Twilight 4:31 AM EDT 9:09 PM EDT
Astronomical Twilight 3:49 AM EDT 9:51 PM EDT
Moon 6:45 AM EDT (5/11) 9:38 PM EDT (5/11)
Length of Visible Light 15h 21m
Length of Day
14h 20m
Waxing Crescent, 3% of the Moon is Illuminated
May 11
Waxing Crescent
May 18
First Quarter
May 25
Full
May 31
Last Quarter
Jun 8
New

Hourly Weather History & Observations

Time (EDT) Temp. Dew Point Humidity Pressure Visibility Wind Dir Wind Speed Gust Speed Precip Events Conditions
12:53 AM 60.1 °F 54.0 °F 80% 29.91 in 10.0 mi SW 6.9 mph - N/A   Mostly Cloudy
1:53 AM 59.0 °F 54.0 °F 83% 29.88 in 10.0 mi SSW 4.6 mph - N/A   Mostly Cloudy
2:53 AM 59.0 °F 55.9 °F 90% 29.90 in 10.0 mi WSW 8.1 mph - 0.00 in Rain Light Rain
3:53 AM 59.0 °F 57.0 °F 93% 29.85 in 6.0 mi South 3.5 mph - 0.03 in Rain Light Rain
4:22 AM 60.8 °F 57.2 °F 88% 29.86 in 5.0 mi SSW 9.2 mph - 0.00 in   Overcast
4:33 AM 60.8 °F 59.0 °F 94% 29.85 in 4.0 mi South 8.1 mph - 0.00 in   Overcast
4:41 AM 60.8 °F 59.0 °F 94% 29.85 in 5.0 mi South 6.9 mph - 0.00 in   Overcast
4:53 AM 60.1 °F 59.0 °F 96% 29.85 in 6.0 mi SSW 5.8 mph - 0.00 in   Mostly Cloudy
5:53 AM 61.0 °F 59.0 °F 93% 29.85 in 10.0 mi SSW 8.1 mph - 0.02 in Rain Light Rain
6:49 AM 60.8 °F 57.2 °F 88% 29.84 in 10.0 mi South 10.4 mph - 0.00 in   Overcast
6:53 AM 60.1 °F 57.9 °F 93% 29.84 in 10.0 mi South 11.5 mph - 0.00 in   Overcast
7:53 AM 61.0 °F 57.9 °F 90% 29.85 in 10.0 mi SSW 13.8 mph 19.6 mph 0.00 in Rain Light Rain
8:53 AM 62.1 °F 57.9 °F 86% 29.85 in 10.0 mi SW 11.5 mph - 0.01 in   Overcast
9:53 AM 62.1 °F 59.0 °F 90% 29.84 in 10.0 mi SSW 15.0 mph 23.0 mph 0.02 in   Overcast
10:16 AM 60.8 °F 59.0 °F 94% 29.84 in 9.0 mi SSW 16.1 mph 23.0 mph 0.00 in Rain Light Rain
10:32 AM 60.8 °F 57.2 °F 88% 29.84 in 8.0 mi SSW 13.8 mph 23.0 mph 0.00 in Rain , Thunderstorm Light Rain
10:53 AM 60.1 °F 57.9 °F 93% 29.84 in 9.0 mi SW 16.1 mph 28.8 mph 0.00 in   Overcast
11:53 AM 60.1 °F 57.9 °F 93% 29.82 in 6.0 mi SSW 15.0 mph 23.0 mph 0.00 in   Overcast
12:11 PM 62.6 °F 57.2 °F 82% 29.82 in 8.0 mi SSW 16.1 mph 23.0 mph N/A   Mostly Cloudy
12:53 PM 62.1 °F 57.9 °F 86% 29.82 in 10.0 mi SSW 17.3 mph - N/A   Overcast
1:01 PM 62.6 °F 57.2 °F 82% 29.82 in 10.0 mi SSW 20.7 mph 27.6 mph N/A   Overcast
1:08 PM 60.8 °F 57.2 °F 88% 29.82 in 10.0 mi SSW 18.4 mph 27.6 mph N/A   Overcast
1:20 PM 60.8 °F 57.2 °F 88% 29.81 in 7.0 mi SSW 13.8 mph 21.9 mph N/A   Overcast
1:53 PM 61.0 °F 59.0 °F 93% 29.79 in 7.0 mi SSW 12.7 mph - N/A   Overcast
2:53 PM 64.9 °F 61.0 °F 87% 29.77 in 9.0 mi South 10.4 mph - N/A   Overcast
3:53 PM 62.1 °F 57.9 °F 86% 29.75 in 9.0 mi SSW 17.3 mph 21.9 mph N/A   Mostly Cloudy
4:39 PM 60.8 °F 57.2 °F 88% 29.76 in 4.0 mi SSW 16.1 mph 24.2 mph 0.01 in Rain , Thunderstorm Rain
4:49 PM 60.8 °F 59.0 °F 94% 29.79 in 1.8 mi WSW 16.1 mph - 0.09 in Rain , Thunderstorm Heavy Thunderstorms and Rain
4:53 PM 60.1 °F 57.9 °F 93% 29.78 in 1.2 mi SW 8.1 mph - 0.15 in Rain , Thunderstorm Heavy Thunderstorms and Rain
5:02 PM 60.8 °F 59.0 °F 94% 29.77 in 1.0 mi SW 4.6 mph - 0.13 in Rain Heavy Rain
5:17 PM 60.8 °F 59.0 °F 94% 29.78 in 1.2 mi SW 6.9 mph - 0.30 in Rain , Thunderstorm Heavy Rain
5:33 PM 60.8 °F 60.8 °F 100% 29.77 in 2.5 mi South 6.9 mph - 0.40 in Rain Rain
5:41 PM 60.8 °F 59.0 °F 94% 29.77 in 3.0 mi South 11.5 mph - 0.42 in Rain Rain
5:53 PM 60.1 °F 59.0 °F 96% 29.75 in 4.0 mi SSW 6.9 mph - 0.44 in Rain Light Rain
6:10 PM 60.8 °F 59.0 °F 94% 29.75 in 2.5 mi South 9.2 mph - 0.05 in Rain Heavy Rain
6:25 PM 59.0 °F 57.2 °F 94% 29.76 in 6.0 mi South 10.4 mph - 0.06 in   Overcast
6:35 PM 59.0 °F 57.2 °F 94% 29.75 in 5.0 mi South 9.2 mph - 0.06 in   Overcast
6:45 PM 59.0 °F 57.2 °F 94% 29.75 in 5.0 mi South 5.8 mph - 0.06 in   Overcast
6:53 PM 59.0 °F 57.9 °F 96% 29.74 in 5.0 mi South 4.6 mph - 0.06 in   Overcast
7:11 PM 57.2 °F 57.2 °F 100% 29.74 in 3.0 mi South 11.5 mph - N/A   Overcast
7:53 PM 57.9 °F 57.9 °F 100% 29.74 in 2.5 mi South 5.8 mph - N/A   Overcast
8:13 PM 57.2 °F 57.2 °F 100% 29.74 in 4.0 mi SSW 5.8 mph - N/A   Overcast
8:53 PM 57.9 °F 57.9 °F 100% 29.75 in 5.0 mi SSW 5.8 mph - N/A   Mostly Cloudy
9:08 PM 59.0 °F 57.2 °F 94% 29.74 in 5.0 mi SSW 3.5 mph - N/A   Overcast
9:49 PM 60.8 °F 59.0 °F 94% 29.74 in 5.0 mi SSW 6.9 mph - N/A   Mostly Cloudy
9:53 PM 60.1 °F 59.0 °F 96% 29.73 in 5.0 mi SSW 4.6 mph - N/A   Mostly Cloudy
10:41 PM 60.8 °F 59.0 °F 94% 29.73 in 4.0 mi SSW 4.6 mph - 0.00 in   Overcast
10:53 PM 59.0 °F 57.9 °F 96% 29.73 in 4.0 mi SSW 5.8 mph - 0.00 in   Overcast
11:45 PM 59.0 °F 57.2 °F 94% 29.71 in 2.5 mi SW 4.6 mph - N/A   Overcast
11:53 PM 59.0 °F 57.9 °F 96% 29.71 in 2.5 mi WSW 4.6 mph - N/A   Overcast